GW2156 Weather Reports


time (UTC)temp
C
wind
direction
speed
KPH
gust
KPH
rain 1hr
cm
rain 24hr
cm
rain mn
cm
humidity
%
barometer
mb
20260503022106 11 119 9.7 14.5 0.00 0.51 0.51 100 1010.3
20260503021047 11 120 11.3 14.5 0.00 0.51 0.51 100 1010.4
20260503020110 11 120 9.7 12.9 0.00 0.51 0.51 100 1010.5
20260503015050 11 129 9.7 12.9 0.00 0.51 0.51 100 1010.6
20260503014050 11 125 11.3 12.9 0.00 0.51 0.51 100 1010.6
20260503013050 11 127 11.3 16.1 0.00 0.51 0.51 100 1010.7
20260503012050 11 118 11.3 14.5 0.00 0.51 0.51 100 1010.8
20260503011130 11 119 11.3 14.5 0.00 0.51 0.51 100 1010.8
20260503010050 11 124 11.3 14.5 0.00 0.51 0.51 100 1010.9
20260503005050 11 122 11.3 14.5 0.00 0.51 0.51 100 1011.0
20260503004049 11 121 9.7 14.5 0.00 0.51 0.51 100 1011.1
20260503003050 11 123 8.0 11.3 0.00 0.51 0.51 100 1011.1
20260503002049 11 125 8.0 12.9 0.00 0.51 0.51 100 1011.1
20260503001049 11 122 8.0 12.9 0.00 0.51 0.51 100 1011.2
20260503000049 11 118 9.7 12.9 0.00 0.51 0.51 100 1011.2
20260502235050 11 126 9.7 12.9 0.00 0.51 0.51 100 1011.3
20260502234109 11 127 9.7 14.5 0.00 0.51 0.51 100 1011.3
20260502233110 11 127 11.3 16.1 0.00 0.51 0.51 100 1011.4
20260502232049 11 127 9.7 14.5 0.00 0.51 0.51 100 1011.4
20260502231049 11 128 11.3 14.5 0.00 0.51 0.51 100 1011.4
20260502230129 11 132 11.3 12.9 0.00 0.51 0.51 100 1011.5
20260502225129 11 134 9.7 12.9 0.00 0.51 0.51 100 1011.5
20260502224109 11 136 9.7 12.9 0.00 0.51 0.51 100 1011.5
20260502223049 11 134 8.0 11.3 0.03 0.51 0.51 100 1011.6
20260502222109 11 131 9.7 14.5 0.03 0.51 0.51 100 1011.6
20260502221049 11 124 9.7 14.5 0.03 0.51 0.51 100 1011.6
20260502220049 11 119 12.9 14.5 0.03 0.51 0.51 100 1011.6
20260502215049 11 129 9.7 12.9 0.03 0.51 0.51 100 1011.6
20260502214049 11 139 8.0 11.3 0.03 0.51 0.51 100 1011.7
20260502213109 11 148 9.7 11.3 0.00 0.48 0.48 100 1011.7
20260502212049 11 143 8.0 11.3 0.00 0.48 0.48 100 1011.7
20260502211108 11 152 6.4 9.7 0.00 0.48 0.48 100 1011.7
20260502210048 11 152 4.8 8.0 0.00 0.48 0.48 100 1011.8
20260502205049 11 150 6.4 9.7 0.03 0.48 0.48 100 1011.8
20260502204048 11 155 6.4 9.7 0.03 0.48 0.48 100 1011.8
20260502203048 11 154 6.4 9.7 0.05 0.48 0.48 100 1011.8
20260502202048 11 158 6.4 9.7 0.05 0.48 0.48 100 1011.8
20260502201048 11 156 9.7 14.5 0.08 0.48 0.48 100 1011.8
20260502200048 11 157 6.4 12.9 0.13 0.48 0.48 100 1011.8
20260502195108 11 164 6.4 12.9 0.13 0.46 0.46 100 1011.8
20260502194048 11 155 9.7 14.5 0.15 0.46 0.46 100 1011.8
20260502193048 11 151 9.7 14.5 0.15 0.43 0.43 100 1011.8
20260502192048 11 166 6.4 12.9 0.18 0.43 0.43 100 1011.8
20260502191048 11 160 8.0 14.5 0.18 0.41 0.41 100 1011.8
20260502190048 11 151 11.3 14.5 0.15 0.36 0.36 100 1011.8
20260502185048 11 160 6.4 11.3 0.18 0.36 0.36 100 1011.9
20260502184048 11 152 12.9 17.7 0.15 0.30 0.30 100 1012.0
20260502183048 11 147 11.3 14.5 0.15 0.28 0.28 100 1012.0
20260502182048 11 151 11.3 14.5 0.13 0.25 0.25 100 1012.0
20260502181108 11 151 11.3 16.1 0.13 0.23 0.23 100 1012.0
20260502164127 11 129 9.7 12.9 0.03 0.10 0.10 100 1012.3
20260502163047 11 135 8.0 12.9 0.05 0.10 0.10 100 1012.4
20260502162047 11 139 8.0 11.3 0.05 0.10 0.10 100 1012.4
20260502161108 11 133 6.4 9.7 0.05 0.10 0.10 100 1012.5
20260502152047 12 163 6.4 11.3 0.03 0.05 0.05 100 1012.9
20260502151107 12 164 6.4 9.7 0.00 0.05 0.05 100 1013.1
20260502140107 12 208 6.4 11.3 0.05 0.05 0.05 100 1013.8
20260502130107 12 194 8.0 12.9 0.00 0.00 0.00 100 1014.2
20260502123106 12 184 8.0 14.5 0.00 0.00 0.00 100 1014.6
20260502122046 12 189 9.7 16.1 0.00 0.00 0.00 100 1014.7
20260502121046 12 184 9.7 19.3 0.00 0.00 0.00 100 1014.7
20260502115046 12 187 9.7 16.1 0.00 0.00 0.00 100 1014.9
20260502114047 12 185 9.7 16.1 0.00 0.00 0.00 100 1015.0
20260502113046 12 192 11.3 17.7 0.00 0.00 0.00 100 1015.0
20260502112046 12 198 12.9 22.5 0.00 0.00 0.00 100 1015.1
20260502111106 12 198 12.9 19.3 0.00 0.00 0.00 100 1015.0
20260502110046 12 198 11.3 17.7 0.00 0.00 0.00 100 1015.0
20260502105050 12 207 12.9 22.5 0.00 0.00 0.00 100 1015.0
20260502104110 12 193 9.7 16.1 0.00 0.00 0.00 100 1014.9
20260502103050 12 173 8.0 12.9 0.00 0.00 0.00 100 1014.9
20260502102049 12 190 8.0 14.5 0.00 0.00 0.00 100 1014.8
20260502101050 12 194 8.0 17.7 0.00 0.00 0.00 100 1015.0
20260502091050 12 201 11.3 19.3 0.00 0.00 0.00 100 1015.6
20260502090109 12 200 11.3 17.7 0.00 0.00 0.00 100 1015.7
20260502071049 11 203 9.7 14.5 0.00 0.00 0.00 100 1015.9
20260502070049 11 201 9.7 17.7 0.00 0.00 0.00 100 1016.0
20260502065049 11 201 11.3 17.7 0.00 0.00 0.00 100 1015.9
20260502064109 11 202 9.7 17.7 0.00 0.00 0.00 100 1015.9
20260502063049 11 203 9.7 12.9 0.00 0.00 0.00 100 1015.9
20260502062049 11 206 6.4 11.3 0.00 0.00 0.00 100 1015.9
20260502061049 11 194 4.8 9.7 0.00 0.00 0.00 100 1015.9
20260502060049 11 199 3.2 6.4 0.00 0.00 0.00 100 1015.9
20260502055109 11 208 6.4 8.0 0.00 0.00 0.00 100 1015.9
20260502054049 11 196 3.2 4.8 0.00 0.00 0.00 100 1015.9
20260502053048 11 237 4.8 6.4 0.00 0.00 0.00 100 1015.9
20260502052049 11 210 4.8 8.0 0.00 0.00 0.00 100 1015.9
20260502051048 11 212 6.4 11.3 0.00 0.00 0.00 100 1016.0
20260502050049 11 222 6.4 9.7 0.00 0.00 0.00 100 1016.0
20260502045036 11 205 8.0 12.9 0.00 0.00 0.00 100 1016.0
20260502044036 11 203 6.4 11.3 0.00 0.00 0.00 100 1016.0
20260502043035 11 200 6.4 11.3 0.00 0.00 0.00 100 1016.1
20260502042055 11 200 6.4 11.3 0.00 0.00 0.00 100 1016.1
20260502041035 11 210 8.0 12.9 0.00 0.00 0.00 100 1016.2
20260502040036 11 210 6.4 9.7 0.00 0.00 0.00 100 1016.3
20260502035035 11 213 9.7 17.7 0.00 0.00 0.00 100 1016.3
20260502034035 11 204 9.7 16.1 0.00 0.00 0.00 100 1016.4
20260502033035 11 207 8.0 11.3 0.00 0.00 0.00 100 1016.5
20260502032035 11 194 6.4 9.7 0.00 0.00 0.00 100 1016.6
20260502031035 11 184 4.8 6.4 0.00 0.00 0.00 100 1016.6
20260502030035 11 176 3.2 6.4 0.00 0.00 0.00 100 1016.7
20260502025035 11 163 4.8 8.0 0.00 0.00 0.00 100 1016.7
20260502024035 11 194 4.8 8.0 0.00 0.00 0.00 100 1016.8
20260502023035 11 181 3.2 6.4 0.00 0.00 0.00 100 1016.8